Hourly Data Report for October 07, 2015

All times are specified in Local Standard Time (LST). Add 1 hour to adjust for Daylight Saving Time where and when it is observed.

GJOA HAVEN A
NUNAVUT

68°38'08.000" N
95°51'01.000" W
46.90 m
2302337
71597
YHK

Download Data

Hourly Data (October 2015)
Hourly Data Report for October 7, 2015
Temp Definition
°C
Dew Point Temp Definition
°C
Rel Hum Definition
%
Wind Dir Definition
10's deg

Wind Spd Definition
km/h
Visibility Definition
km
Stn Press Definition
kPa
Hmdx Definition


Wind Chill Definition


Weather Definition


TIME
00:00 Legend Double Dagger -6.7 -9.6 80 27 22 16.1 99.98   -14 Snow
01:00 Legend Double Dagger -6.4 -9.0 82 27 18 16.1 99.98   -13 LegendNANA
02:00 Legend Double Dagger -6.0 -7.8 87 26 18 16.1 99.93   -12 Snow
03:00 Legend Double Dagger -5.6 -7.7 85 27 17 16.1 99.89   -12 Snow
04:00 Legend Double Dagger -5.3 -6.0 95 26 22 4.0 99.89   -12 Snow
05:00 Legend Double Dagger -8.4 -9.7 91 29 21 16.1 99.88   -16 LegendNANA
06:00 Legend Double Dagger -7.8 -9.5 88 28 22 16.1 99.88   -15 LegendNANA
07:00 Legend Double Dagger -8.4 -9.9 89 28 18 16.1 99.88   -15 LegendNANA
08:00 Legend Double Dagger -8.0 -9.7 88 27 26 16.1 99.88   -16 LegendNANA
09:00 Legend Double Dagger -6.6 -8.0 90 27 21 16.1 99.89   -14 LegendNANA
10:00 Legend Double Dagger -5.5 -7.4 87 28 26 16.1 99.88   -13 LegendNANA
11:00 Legend Double Dagger -5.8 -7.8 86 27 18 16.1 99.91   -12 LegendNANA
12:00 Legend Double Dagger -5.2 -7.5 84 28 32 16.1 99.92   -13 Snow
13:00 Legend Double Dagger -6.1 -8.4 84 28 34 16.1 99.94   -15 Snow
14:00 Legend Double Dagger -6.3 -8.9 82 28 28 16.1 99.93   -14 LegendNANA
15:00 Legend Double Dagger -6.0 -8.0 86 28 35 9.7 99.93   -15 Snow
16:00 Legend Double Dagger -7.2 -8.6 90 28 22 16.1 99.95   -15 LegendNANA
17:00 Legend Double Dagger -7.5 -8.6 92 28 24 16.1 99.95   -15 LegendNANA
18:00 Legend Double Dagger -8.0 -9.1 92 27 21 16.1 99.95   -16 LegendNANA
19:00 Legend Double Dagger -8.6 -10.5 86 28 18 16.1 99.92   -16 LegendNANA
20:00 Legend Double Dagger -9.7 -11.0 90 28 15 16.1 99.92   -16 LegendNANA
21:00 Legend Double Dagger -8.9 -10.7 87 27 15 16.1 99.88   -15 LegendNANA
22:00 Legend Double Dagger -7.7 -9.8 85 27 21 16.1 99.86   -15 LegendNANA
23:00 Legend Double Dagger -8.0 -9.8 87 27 21 16.1 99.86   -16 LegendNANA

Notes on Data Quality.

Legend

  • E = Estimated
  • M = Missing
  • NA = Not Available
  • ‡ = Partner data that is not subject to review by the National Climate Archives
Date modified: